{"data":{"norad_id":50849,"epoch":"2026-09-19T21:51:51.268320Z","epoch_age_seconds":99034,"freshness":"FRESH","line1":"1 50849U 22001AY  26262.91101005  .00000247  00000+0  18450-4 0  9990","line2":"2 50849  53.1615  12.1165 0001129  75.2463 284.8664 15.34386013259799","mean_motion":15.34386013,"eccentricity":0.0001129,"inclination_deg":53.1615,"raan_deg":12.1165,"arg_perigee_deg":75.2463,"mean_anomaly_deg":284.8664,"bstar":1.845e-5,"rev_number":25979,"period_min":93.848613569185,"perigee_km":461.97247727786,"apogee_km":463.5171483912,"semimajor_km":6840.8818128345,"source":"CELESTRAK","updated_at":"2026-09-20T09:00:39.583146Z"}}